Preview of NWS' New Version of Forecast
This preview is not operational and should not be used for support decisions.

Regional Weather Roundup (RWR)

Issued by National Weather Service (NWS)

                            
000
ASPQ40 PGUM 230010
RWRPQ 
WEATHER ROUNDUP FOR THE MARIANAS AND MICRONESIA
NATIONAL WEATHER SERVICE TIYAN GU
1000 AM CHST FRI AUG 23 2019

GUZ001>004-230100-
MARIANA ISLANDS-
  
CITY           SKY/WX    TMP DP  RH WIND       PRES   REMARKS
GUAM AIRPORT   SUNNY     90  75  62 NE18      29.86S HX 100           
ANDERSEN AFB   MOSUNNY   86  77  74 E16       29.87S HX  97           
ROTA AIRPORT   PTSUNNY   84  73  70 NE12      29.84R HX  91           
TINIAN AP      MOSUNNY   88  81  79 E18       29.83F HX 105           
SAIPAN AP      MOSUNNY   90  79  70 E20       29.85S HX 105           

$$

PMZ161-230100-
REPUBLIC OF PALAU-
  
CITY           SKY/WX    TMP DP  RH WIND       PRES   REMARKS
KOROR AP       CLOUDY    82  77  83 S5        29.89S HX  91           
KOROR WSO      NOT AVBL                                               

$$

PMZ171>174-230100-
FEDERATED STATES OF MICRONESIA-
  
CITY           SKY/WX    TMP DP  RH WIND       PRES   REMARKS
YAP AIRPORT    CLOUDY    82  75  78 VRB3      29.90S                  
CHUUK AP       LGT RAIN  81  81 100 S8        29.81F HX  91           
POHNPEI AP     CLOUDY    86  77  74 E7        29.83S HX  97           
POHNPEI WSO    CLOUDY    88  77  70 CALM      29.88S HX 100           
KOSRAE AP      NOT AVBL                                               

$$

PMZ181-230100-
REPUBLIC OF THE MARSHALL ISLANDS-
  
CITY           SKY/WX    TMP DP  RH WIND       PRES   REMARKS
KWAJALEIN AP   SUNNY     82  75  78 SE8       29.86F                  
MAJURO AP      PTSUNNY   82  77  83 E16       29.84  HX  91           
MAJURO WSO     PTSUNNY   82  77  83 SE8       29.83F HX  91           

$$